Погода в Зиянчурине

Россия / Оренбургская область     51°33′42″N   56°54′30″E
темп.,
°C
ветер,
м/с
пор.,
м/с
влажн.,
%
обл.,
%
осадки,
мм/ч
давл.,
гПа
погр.,
м
27 февраля, сб
сб2723:00−19вюв499496 0.1 1023185
02:00−18вюв4109599 0.1 1021279
05:00−17вюв5119599 0.2 1018355
08:00−15юв61395100 0.5 1012438
11:00−9ююв71395100 4.0 1010617
14:00−6ю71295100 1.6 1006672
17:00−4ю51097100 3.8 1005477
20:00+1зюз4999100 0.8 1004436
28 февраля, вс
вс2823:000юз4898100 0.8 1003421
02:000ююз51099100 0.8 1001484
05:000зюз4899100 1.7 1000404
08:00−1юз5998100 1.3 1000531
11:00−1юз5998100 2.3 1000593
14:000зюз47100100 1.5 1001591
17:00−7зюз71094100 2.4 1004474
20:00−10зюз4896100 0.3 1007244
1 марта, пн
пн123:00−12зюз4896100 0.4 1010228
02:00−14зюз369799 0.1 1012176
05:00−16зюз239799 0.3 101496
08:00−18юз2298100 0.1 101539
11:00−17юз239499 0.2 1017254
14:00−15зюз3491100 0.1 1018393
17:00−14зюз4594100 0.1 1018397
20:00−16зюз359899 0.1 1020117
2 марта, вт
вт223:00−17зюз249899 0.2 1021102
02:00−18з2399100 0.1 102147
05:00−20зюз22100100 0.1 102120
08:00−23зюз12100100 0.1 102220
11:00−21зюз2397100 0.1 1022237
14:00−17зюз3492100 0.0 1021354
17:00−17юз2495100 0.1 1020321
20:00−21ю2210093 0.0 102020
3 марта, ср
ср323:00−20ююв239895 0.0 101936
02:00−17юв3597100 0.4 1016165
05:00−13вюв3696100 1.3 1014187
08:00−7ю51294100 1.1 1011492
11:00−5ю71294100 2.3 1009626
14:00−3ю81295100 1.2 1007782
17:00−2ю71296100 2.6 1005809
20:00−1ююз51098100 1.3 1004560